Find Starlink 35506

NORAD ID: 66324 Int'l Des: 2025-253 Owner: SPXS Country: US Constellation: starlink operational
LEOCIRCULAR

Aktuelle Ansicht

3D-Globus wird geladen...

Über Starlink 35506

Beschreibung wird geladen...

Nächste Überflüge

Passes for default location (London). Set your location on the main map for personalized predictions.

Höhenverlauf

Loading altitude history...

Zweizeiliger Elementsatz

1 66324U 25253F 26146.33777210 .00013887 00000-0 51309-3 0 9995
2 66324 43.0014 133.6579 0001318 267.4275 92.6426 15.27588303 32124
Epoch: 26. Mai 2026 • Age: 15 hours

Aktueller Status

Höhe 492.9 km
Geschwindigkeit 7.62 km/s
Subsatellitenpunkt -36.63°S, 128.82°E
Startdatum 6. Nov. 2025
Alter 0.5 years
Typ internet

Technische Details

Klassifizierung Payload
Masse 575.00 kg
Trockenmasse 530.00 kg
Gesamtmasse 575.00 kg
Länge 0.30 m
Durchmesser 4.10 m
Spannweite 29.00 m
Form Box + pan
Hersteller SPXS
Bus-Typ Starlink V2MO
Phasenstatus In Orbit
Besitzer/Staat SPXS/US

Most Searched